Back to catalog

DMSP 5D-2 F11 DEB

AlivePO
NORAD 29070·DEBRIS·🇺🇸 United States

Launched Nov 28, 1991 from Vandenberg Space Force Base

Loading…

Next Passes (next 24 hours)

TLE

FreshSource: Space-Track

Epoch: Sep 14, 2026, 02:54 UTC

1 29070U 91082BR  26257.12101356  .00045731  00000-0  32901-2 0  9996
2 29070  98.5885  35.2542 0005511  85.4288 274.7565 15.04048890146311

Track DMSP 5D-2 F11 DEB in real time with AllMySat

Download on the App Store